Time,TemperatureF,DewpointF,PressureIn,WindDirection,WindDirectionDegrees,WindSpeedMPH,WindSpeedGustMPH,Humidity,HourlyPrecipIn,Conditions,Clouds,dailyrainin,SolarRadiationWatts/m^2,SoftwareType,DateUTC
2013-07-09 00:02:00,72.2,67.4,29.98,NE,44,5.0,5.0,85,0.00,CLR,,0.00,0.0,WeatherDisplay:10.37,2013-07-09 10:02:00,
2013-07-09 00:07:00,72.2,67.4,29.98,ENE,68,4.6,4.6,85,0.00,CLR,,0.00,0.0,WeatherDisplay:10.37,2013-07-09 10:07:00,
2013-07-09 00:12:00,72.2,67.4,29.98,NNE,17,5.8,5.8,85,0.00,CLR,,0.00,0.0,WeatherDisplay:10.37,2013-07-09 10:12:00,
2013-07-09 00:17:00,72.2,67.4,29.98,NE,42,3.5,3.5,85,0.00,CLR,,0.00,0.0,WeatherDisplay:10.37,2013-07-09 10:17:00,
2013-07-09 00:22:00,72.2,67.4,29.97,NE,35,5.8,5.8,85,0.00,CLR,,0.00,0.0,WeatherDisplay:10.37,2013-07-09 10:22:00,
2013-07-09 00:27:00,72.2,67.4,29.97,NE,48,6.9,6.9,85,0.00,CLR,,0.00,0.0,WeatherDisplay:10.37,2013-07-09 10:27:00,
2013-07-09 00:32:00,72.2,67.4,29.97,ENE,60,8.1,8.1,85,0.00,CLR,,0.00,0.0,WeatherDisplay:10.37,2013-07-09 10:32:00,
2013-07-09 00:37:00,72.1,67.3,29.97,NNE,30,3.5,3.5,85,0.00,CLR,,0.00,0.0,WeatherDisplay:10.37,2013-07-09 10:37:00,
2013-07-09 00:42:00,72.1,67.3,29.97,NNW,340,6.9,6.9,85,0.00,CLR,,0.00,0.0,WeatherDisplay:10.37,2013-07-09 10:42:00,
2013-07-09 00:47:00,72.1,67.3,29.96,NW,326,7.0,7.0,85,0.00,CLR,,0.00,0.0,WeatherDisplay:10.37,2013-07-09 10:47:00,
2013-07-09 00:52:00,72.1,67.3,29.97,NNE,13,8.1,8.1,85,0.00,CLR,,0.00,0.0,WeatherDisplay:10.37,2013-07-09 10:52:00,
2013-07-09 00:57:00,72.2,67.4,29.97,NNE,26,6.0,6.0,85,0.00,CLR,,0.00,0.0,WeatherDisplay:10.37,2013-07-09 10:57:00,
2013-07-09 01:02:00,72.2,67.4,29.96,East,81,5.0,5.0,85,0.00,CLR,,0.00,0.0,WeatherDisplay:10.37,2013-07-09 11:02:00,
2013-07-09 01:07:00,72.2,67.4,29.96,NE,52,5.8,5.8,85,0.00,CLR,,0.00,0.0,WeatherDisplay:10.37,2013-07-09 11:07:00,
2013-07-09 01:12:00,72.2,67.4,29.96,NE,51,5.0,5.0,85,0.00,CLR,,0.00,0.0,WeatherDisplay:10.37,2013-07-09 11:12:00,
2013-07-09 01:17:00,72.2,67.4,29.96,NE,48,8.1,8.1,85,0.00,CLR,,0.00,0.0,WeatherDisplay:10.37,2013-07-09 11:17:00,
2013-07-09 01:22:00,72.2,67.4,29.96,NNE,23,5.8,5.8,85,0.00,CLR,,0.00,0.0,WeatherDisplay:10.37,2013-07-09 11:22:00,
2013-07-09 01:27:00,72.2,67.4,29.96,NNE,13,8.1,8.1,85,0.00,CLR,,0.00,0.0,WeatherDisplay:10.37,2013-07-09 11:27:00,
2013-07-09 01:32:00,72.1,67.3,29.96,ENE,57,9.0,9.0,85,0.00,CLR,,0.00,0.0,WeatherDisplay:10.37,2013-07-09 11:32:00,
2013-07-09 01:37:00,72.1,67.3,29.96,NNE,28,4.6,4.6,85,0.00,CLR,,0.00,0.0,WeatherDisplay:10.37,2013-07-09 11:37:00,
2013-07-09 01:42:00,72.1,67.3,29.95,ENE,61,6.9,6.9,85,0.00,CLR,,0.00,0.0,WeatherDisplay:10.37,2013-07-09 11:42:00,
2013-07-09 01:47:00,72.1,67.3,29.96,NE,44,6.9,6.9,85,0.00,CLR,,0.00,0.0,WeatherDisplay:10.37,2013-07-09 11:47:00,
2013-07-09 01:52:00,72.1,67.3,29.95,ENE,59,10.4,10.4,85,0.00,CLR,,0.00,0.0,WeatherDisplay:10.37,2013-07-09 11:52:00,
2013-07-09 01:57:00,72.2,67.4,29.95,NNE,16,4.6,4.6,85,0.00,CLR,,0.00,0.0,WeatherDisplay:10.37,2013-07-09 11:57:00,
2013-07-09 02:02:00,72.2,67.4,29.95,NNE,33,7.0,7.0,85,0.00,CLR,,0.00,0.0,WeatherDisplay:10.37,2013-07-09 12:02:00,
2013-07-09 02:07:00,72.2,67.4,29.95,ENE,60,9.2,9.2,85,0.00,CLR,,0.00,0.0,WeatherDisplay:10.37,2013-07-09 12:07:00,
2013-07-09 02:12:00,72.1,67.3,29.95,NE,51,4.6,4.6,85,0.00,CLR,,0.00,0.0,WeatherDisplay:10.37,2013-07-09 12:12:00,
2013-07-09 02:17:00,72.1,67.3,29.95,NE,45,6.9,6.9,85,0.00,CLR,,0.00,0.0,WeatherDisplay:10.37,2013-07-09 12:17:00,
2013-07-09 02:22:00,72.1,67.3,29.95,ENE,63,9.0,9.0,85,0.00,CLR,,0.00,0.0,WeatherDisplay:10.37,2013-07-09 12:22:00,
2013-07-09 02:27:00,72.0,67.2,29.95,NNE,32,8.1,8.1,85,0.00,CLR,,0.00,0.0,WeatherDisplay:10.37,2013-07-09 12:27:00,
2013-07-09 02:32:00,72.0,67.2,29.95,NNE,22,9.2,9.2,85,0.00,CLR,,0.00,0.0,WeatherDisplay:10.37,2013-07-09 12:32:00,
2013-07-09 02:37:00,72.1,67.0,29.95,NNE,15,6.9,6.9,84,0.00,CLR,,0.00,0.0,WeatherDisplay:10.37,2013-07-09 12:37:00,
2013-07-09 02:42:00,72.1,67.0,29.95,East,80,9.0,9.0,84,0.00,CLR,,0.00,0.0,WeatherDisplay:10.37,2013-07-09 12:42:00,
2013-07-09 02:47:00,72.1,67.0,29.95,ENE,65,6.9,6.9,84,0.00,CLR,,0.00,0.0,WeatherDisplay:10.37,2013-07-09 12:47:00,
2013-07-09 02:52:00,72.1,67.0,29.95,ENE,67,5.0,5.0,84,0.00,CLR,,0.00,0.0,WeatherDisplay:10.37,2013-07-09 12:52:00,
2013-07-09 02:57:00,72.1,67.0,29.95,ENE,58,9.2,9.2,84,0.00,CLR,,0.00,0.0,WeatherDisplay:10.37,2013-07-09 12:57:00,
2013-07-09 03:02:00,72.1,67.0,29.95,NNW,336,8.1,8.1,84,0.00,CLR,,0.00,0.0,WeatherDisplay:10.37,2013-07-09 13:02:00,
2013-07-09 03:07:00,72.0,66.9,29.95,ENE,69,5.8,5.8,84,0.00,CLR,,0.00,0.0,WeatherDisplay:10.37,2013-07-09 13:07:00,
2013-07-09 03:12:00,72.0,66.9,29.95,NE,49,10.4,10.4,84,0.00,CLR,,0.00,0.0,WeatherDisplay:10.37,2013-07-09 13:12:00,
2013-07-09 03:17:00,71.9,66.8,29.95,NNE,28,11.5,11.5,84,0.00,CLR,,0.00,0.0,WeatherDisplay:10.37,2013-07-09 13:17:00,
2013-07-09 03:22:00,71.9,66.8,29.95,NE,40,9.2,9.2,84,0.00,CLR,,0.00,0.0,WeatherDisplay:10.37,2013-07-09 13:22:00,
2013-07-09 03:27:00,71.9,66.8,29.95,ENE,74,11.5,11.5,84,0.00,CLR,,0.00,0.0,WeatherDisplay:10.37,2013-07-09 13:27:00,
2013-07-09 03:32:00,71.9,66.8,29.95,NE,37,4.6,4.6,84,0.00,CLR,,0.00,0.0,WeatherDisplay:10.37,2013-07-09 13:32:00,
2013-07-09 03:37:00,71.9,66.5,29.95,ENE,57,6.9,6.9,83,0.00,CLR,,0.00,0.0,WeatherDisplay:10.37,2013-07-09 13:37:00,
2013-07-09 03:42:00,71.9,66.5,29.94,NE,54,4.6,4.6,83,0.00,CLR,,0.00,0.0,WeatherDisplay:10.37,2013-07-09 13:42:00,
2013-07-09 03:47:00,71.8,66.4,29.95,NNE,28,6.9,6.9,83,0.00,CLR,,0.00,0.0,WeatherDisplay:10.37,2013-07-09 13:47:00,
2013-07-09 03:52:00,71.9,66.5,29.95,North,360,5.8,5.8,83,0.00,CLR,,0.00,0.0,WeatherDisplay:10.37,2013-07-09 13:52:00,
2013-07-09 03:57:00,71.9,66.5,29.95,North,5,6.9,6.9,83,0.00,CLR,,0.00,0.0,WeatherDisplay:10.37,2013-07-09 13:57:00,
2013-07-09 04:02:00,72.0,66.6,29.95,ENE,64,11.5,11.5,83,0.00,CLR,,0.00,0.0,WeatherDisplay:10.37,2013-07-09 14:02:00,
2013-07-09 04:07:00,72.1,66.6,29.95,NE,35,8.1,8.1,83,0.00,CLR,,0.00,0.0,WeatherDisplay:10.37,2013-07-09 14:07:00,
2013-07-09 04:12:00,72.0,66.6,29.95,NE,43,8.1,8.1,83,0.00,CLR,,0.00,0.0,WeatherDisplay:10.37,2013-07-09 14:12:00,
2013-07-09 04:17:00,72.0,66.6,29.95,North,5,10.4,10.4,83,0.00,CLR,,0.00,0.0,WeatherDisplay:10.37,2013-07-09 14:17:00,
2013-07-09 04:22:00,71.9,66.5,29.95,ENE,63,9.2,9.2,83,0.00,CLR,,0.00,0.0,WeatherDisplay:10.37,2013-07-09 14:22:00,
2013-07-09 04:27:00,71.9,66.1,29.95,NNE,28,11.0,11.0,82,0.00,CLR,,0.00,0.0,WeatherDisplay:10.37,2013-07-09 14:27:00,
2013-07-09 04:32:00,71.9,66.1,29.95,East,80,11.5,11.5,82,0.00,CLR,,0.00,0.0,WeatherDisplay:10.37,2013-07-09 14:32:00,
2013-07-09 04:37:00,71.9,66.1,29.95,ENE,70,11.5,11.5,82,0.00,CLR,,0.00,0.0,WeatherDisplay:10.37,2013-07-09 14:37:00,
2013-07-09 04:42:00,71.8,66.0,29.95,ENE,58,8.1,8.1,82,0.00,CLR,,0.00,0.0,WeatherDisplay:10.37,2013-07-09 14:42:00,
2013-07-09 04:47:00,71.8,66.0,29.96,NE,47,9.2,9.2,82,0.00,CLR,,0.00,0.0,WeatherDisplay:10.37,2013-07-09 14:47:00,
2013-07-09 04:52:00,71.7,65.9,29.96,NNE,27,6.0,6.0,82,0.00,CLR,,0.00,0.0,WeatherDisplay:10.37,2013-07-09 14:52:00,
2013-07-09 04:57:00,71.7,65.9,29.96,NE,43,9.2,9.2,82,0.00,CLR,,0.00,0.0,WeatherDisplay:10.37,2013-07-09 14:57:00,
2013-07-09 05:02:00,71.6,65.8,29.97,NE,49,6.9,6.9,82,0.00,CLR,,0.00,0.0,WeatherDisplay:10.37,2013-07-09 15:02:00,
2013-07-09 05:07:00,71.5,65.7,29.96,NNE,29,11.5,11.5,82,0.00,CLR,,0.00,0.0,WeatherDisplay:10.37,2013-07-09 15:07:00,
2013-07-09 05:12:00,71.5,65.7,29.96,NNE,15,9.2,9.2,82,0.00,CLR,,0.00,0.0,WeatherDisplay:10.37,2013-07-09 15:12:00,
2013-07-09 05:17:00,71.4,66.0,29.97,NE,53,8.1,8.1,83,0.00,CLR,,0.00,0.0,WeatherDisplay:10.37,2013-07-09 15:17:00,
2013-07-09 05:22:00,71.4,66.0,29.97,NW,325,4.6,4.6,83,0.00,CLR,,0.00,0.0,WeatherDisplay:10.37,2013-07-09 15:22:00,
2013-07-09 05:27:00,71.3,65.9,29.97,East,86,6.9,6.9,83,0.00,CLR,,0.00,0.0,WeatherDisplay:10.37,2013-07-09 15:27:00,
2013-07-09 05:32:00,71.3,65.9,29.97,NNE,22,4.6,4.6,83,0.00,CLR,,0.00,0.0,WeatherDisplay:10.37,2013-07-09 15:32:00,
2013-07-09 05:37:00,71.3,65.9,29.97,ENE,71,7.0,7.0,83,0.00,CLR,,0.00,0.0,WeatherDisplay:10.37,2013-07-09 15:37:00,
2013-07-09 05:42:00,71.3,65.9,29.97,East,99,5.8,5.8,83,0.00,CLR,,0.00,0.0,WeatherDisplay:10.37,2013-07-09 15:42:00,
2013-07-09 05:47:00,71.3,65.9,29.98,East,84,10.0,10.0,83,0.00,CLR,,0.00,0.0,WeatherDisplay:10.37,2013-07-09 15:47:00,
2013-07-09 05:52:00,71.4,66.0,29.97,NE,55,10.4,10.4,83,0.00,CLR,,0.00,0.0,WeatherDisplay:10.37,2013-07-09 15:52:00,
2013-07-09 05:57:00,71.4,66.0,29.98,ENE,61,8.1,8.1,83,0.00,CLR,,0.00,5.0,WeatherDisplay:10.37,2013-07-09 15:57:00,
2013-07-09 06:02:00,71.3,65.5,29.98,NE,44,8.0,8.0,82,0.00,SCT,,0.00,7.0,WeatherDisplay:10.37,2013-07-09 16:02:00,
2013-07-09 06:07:00,71.2,65.8,29.98,NE,37,9.2,9.2,83,0.00,BKN,,0.00,9.0,WeatherDisplay:10.37,2013-07-09 16:07:00,
2013-07-09 06:12:00,71.2,65.4,29.98,ENE,57,11.5,11.5,82,0.00,CLR,,0.00,11.0,WeatherDisplay:10.37,2013-07-09 16:12:00,
2013-07-09 06:17:00,71.3,65.5,29.98,ENE,60,6.9,6.9,82,0.00,BKN,,0.00,18.0,WeatherDisplay:10.37,2013-07-09 16:17:00,
2013-07-09 06:22:00,71.4,65.6,29.98,NE,51,6.0,6.0,82,0.00,BKN,,0.00,32.0,WeatherDisplay:10.37,2013-07-09 16:22:00,
2013-07-09 06:27:00,71.5,65.7,29.99,NNE,20,6.9,6.9,82,0.00,BKN,,0.00,32.0,WeatherDisplay:10.37,2013-07-09 16:27:00,
2013-07-09 06:32:00,71.7,65.9,29.99,ENE,58,6.9,6.9,82,0.00,BKN,,0.00,28.0,WeatherDisplay:10.37,2013-07-09 16:32:00,
2013-07-09 06:37:00,71.7,65.9,29.99,NE,43,6.9,6.9,82,0.00,CLR,,0.00,30.0,WeatherDisplay:10.37,2013-07-09 16:37:00,
2013-07-09 06:42:00,71.7,65.6,29.99,ENE,58,8.1,8.1,81,0.00,BKN,,0.00,40.0,WeatherDisplay:10.37,2013-07-09 16:42:00,
2013-07-09 06:47:00,71.8,65.7,29.99,NE,42,10.4,10.4,81,0.00,BKN,,0.00,72.0,WeatherDisplay:10.37,2013-07-09 16:47:00,
2013-07-09 06:52:00,71.9,65.8,30.00,NE,35,6.9,6.9,81,0.00,BKN,,0.00,72.0,WeatherDisplay:10.37,2013-07-09 16:52:00,
2013-07-09 06:57:00,72.0,66.2,29.99,NNE,16,8.1,8.1,82,0.00,CLR,,0.00,165.0,WeatherDisplay:10.37,2013-07-09 16:57:00,
2013-07-09 07:02:00,72.3,66.1,30.00,NE,46,5.8,5.8,81,0.00,BKN,,0.00,165.0,WeatherDisplay:10.37,2013-07-09 17:02:00,
2013-07-09 07:07:00,72.6,66.4,30.00,NE,40,6.9,6.9,81,0.00,FEW,,0.00,76.0,WeatherDisplay:10.37,2013-07-09 17:07:00,
2013-07-09 07:12:00,72.9,66.7,30.00,ENE,63,9.2,9.2,81,0.00,CLR,,0.00,197.0,WeatherDisplay:10.37,2013-07-09 17:12:00,
2013-07-09 07:17:00,73.1,66.9,30.00,NE,40,3.5,3.7,81,0.00,CLR,,0.00,227.0,WeatherDisplay:10.37,2013-07-09 17:17:00,
2013-07-09 07:22:00,73.6,67.0,30.00,ENE,75,8.1,8.1,80,0.00,CLR,,0.00,250.0,WeatherDisplay:10.37,2013-07-09 17:22:00,
2013-07-09 07:27:00,74.0,67.4,30.00,North,5,8.1,8.1,80,0.00,CLR,,0.00,258.0,WeatherDisplay:10.37,2013-07-09 17:27:00,
2013-07-09 07:32:00,74.4,67.8,30.01,NNE,30,6.9,6.9,80,0.00,CLR,,0.00,283.0,WeatherDisplay:10.37,2013-07-09 17:32:00,
2013-07-09 07:37:00,74.7,67.8,30.01,ENE,65,10.4,10.4,79,0.00,CLR,,0.00,302.0,WeatherDisplay:10.37,2013-07-09 17:37:00,
2013-07-09 07:42:00,74.9,67.9,30.01,ENE,63,5.8,5.8,79,0.00,BKN,,0.00,355.0,WeatherDisplay:10.37,2013-07-09 17:42:00,
2013-07-09 07:47:00,75.2,68.2,30.01,North,355,6.9,6.9,79,0.00,CLR,,0.00,367.0,WeatherDisplay:10.37,2013-07-09 17:47:00,
2013-07-09 07:52:00,75.4,68.1,30.01,ENE,73,9.2,9.2,78,0.00,CLR,,0.00,380.0,WeatherDisplay:10.37,2013-07-09 17:52:00,
2013-07-09 07:57:00,75.8,68.4,30.01,NE,53,11.0,11.0,78,0.00,CLR,,0.00,410.0,WeatherDisplay:10.37,2013-07-09 17:57:00,
2013-07-09 08:02:00,76.0,68.3,30.01,East,88,11.5,11.5,77,0.00,BKN,,0.00,171.0,WeatherDisplay:10.37,2013-07-09 18:02:00,
2013-07-09 08:07:00,76.2,68.1,30.01,ENE,68,9.2,9.2,76,0.00,BKN,,0.00,176.0,WeatherDisplay:10.37,2013-07-09 18:07:00,
2013-07-09 08:12:00,75.9,67.8,30.01,East,85,10.4,10.4,76,0.00,OVC,,0.00,100.0,WeatherDisplay:10.37,2013-07-09 18:12:00,
2013-07-09 08:17:00,75.6,67.9,30.02,ESE,107,6.9,6.9,77,0.00,OVC,,0.00,97.0,WeatherDisplay:10.37,2013-07-09 18:17:00,
2013-07-09 08:22:00,75.5,68.2,30.02,NE,54,10.4,10.4,78,0.00,BKN,,0.00,174.0,WeatherDisplay:10.37,2013-07-09 18:22:00,
2013-07-09 08:27:00,75.5,68.2,30.02,NE,46,9.2,9.2,78,0.00,CLR,,0.00,601.0,WeatherDisplay:10.37,2013-07-09 18:27:00,
2013-07-09 08:32:00,75.7,68.0,30.02,ENE,60,8.1,8.1,77,0.00,BKN,,0.00,279.0,WeatherDisplay:10.37,2013-07-09 18:32:00,
2013-07-09 08:37:00,75.8,67.3,30.02,NE,40,11.5,11.5,75,0.00,BKN,,0.00,179.0,WeatherDisplay:10.37,2013-07-09 18:37:00,
2013-07-09 08:42:00,76.1,68.0,30.03,ENE,66,6.9,7.4,76,0.00,BKN,,0.00,195.0,WeatherDisplay:10.37,2013-07-09 18:42:00,
2013-07-09 08:47:00,76.4,67.9,30.02,NE,53,11.5,11.5,75,0.00,CLR,,0.00,585.0,WeatherDisplay:10.37,2013-07-09 18:47:00,
2013-07-09 08:52:00,77.0,67.7,30.03,NNW,335,10.4,10.4,73,0.00,CLR,,0.00,633.0,WeatherDisplay:10.37,2013-07-09 18:52:00,
2013-07-09 08:57:00,77.5,66.9,30.03,ESE,113,11.5,11.5,70,0.00,CLR,,0.00,654.0,WeatherDisplay:10.37,2013-07-09 18:57:00,
2013-07-09 09:02:00,77.8,66.8,30.03,ESE,106,12.7,12.7,69,0.00,CLR,,0.00,735.0,WeatherDisplay:10.37,2013-07-09 19:02:00,
2013-07-09 09:07:00,77.6,67.0,30.03,NE,48,10.4,10.4,70,0.00,OVC,,0.00,740.0,WeatherDisplay:10.37,2013-07-09 19:07:00,
2013-07-09 09:12:00,77.9,66.9,30.03,East,90,13.8,13.8,69,0.00,CLR,,0.00,707.0,WeatherDisplay:10.37,2013-07-09 19:12:00,
2013-07-09 09:17:00,78.3,66.9,30.03,NE,53,12.7,12.7,68,0.00,BKN,,0.00,308.0,WeatherDisplay:10.37,2013-07-09 19:17:00,
2013-07-09 09:22:00,78.3,66.9,30.03,East,79,15.0,15.0,68,0.00,CLR,,0.00,766.0,WeatherDisplay:10.37,2013-07-09 19:22:00,
2013-07-09 09:27:00,78.4,66.5,30.03,East,94,13.8,13.8,67,0.00,CLR,,0.00,768.0,WeatherDisplay:10.37,2013-07-09 19:27:00,
2013-07-09 09:32:00,78.6,67.2,30.03,NE,53,11.5,11.5,68,0.00,CLR,,0.00,782.0,WeatherDisplay:10.37,2013-07-09 19:32:00,
2013-07-09 09:37:00,78.9,66.6,30.03,NNE,31,12.7,12.7,66,0.00,CLR,,0.00,735.0,WeatherDisplay:10.37,2013-07-09 19:37:00,
2013-07-09 09:42:00,79.0,66.7,30.03,ESE,120,12.7,12.7,66,0.00,CLR,,0.00,779.0,WeatherDisplay:10.37,2013-07-09 19:42:00,
2013-07-09 09:48:00,79.2,66.4,30.03,ENE,73,13.8,13.8,65,0.00,CLR,,0.00,831.0,WeatherDisplay:10.37,2013-07-09 19:48:00,
2013-07-09 09:53:00,79.3,66.5,30.03,East,100,12.7,12.7,65,0.00,CLR,,0.00,851.0,WeatherDisplay:10.37,2013-07-09 19:53:00,
2013-07-09 09:58:00,79.3,66.5,30.03,ENE,78,13.8,13.8,65,0.00,CLR,,0.00,882.0,WeatherDisplay:10.37,2013-07-09 19:58:00,
2013-07-09 10:03:00,79.5,66.7,30.03,NE,55,13.8,13.8,65,0.00,CLR,,0.00,816.0,WeatherDisplay:10.37,2013-07-09 20:03:00,
2013-07-09 10:08:00,79.5,67.1,30.03,ENE,59,13.8,13.8,66,0.00,CLR,,0.00,846.0,WeatherDisplay:10.37,2013-07-09 20:08:00,
2013-07-09 10:13:00,79.4,67.5,30.03,ENE,71,6.9,6.9,67,0.00,BKN,,0.00,313.0,WeatherDisplay:10.37,2013-07-09 20:13:00,
2013-07-09 10:18:00,79.6,67.2,30.03,NE,46,11.5,11.5,66,0.00,CLR,,0.00,220.0,WeatherDisplay:10.37,2013-07-09 20:18:00,
2013-07-09 10:23:00,79.5,67.1,30.03,East,83,12.7,12.7,66,0.00,BKN,,0.00,334.0,WeatherDisplay:10.37,2013-07-09 20:23:00,
2013-07-09 10:28:00,79.3,67.4,30.03,East,82,11.5,11.5,67,0.00,OVC,,0.00,181.0,WeatherDisplay:10.37,2013-07-09 20:28:00,
2013-07-09 10:33:00,79.2,67.3,30.04,ENE,59,11.5,11.5,67,0.00,OVC,,0.00,1023.0,WeatherDisplay:10.37,2013-07-09 20:33:00,
2013-07-09 10:38:00,79.5,67.1,30.03,North,5,4.6,4.6,66,0.00,CLR,,0.00,1023.0,WeatherDisplay:10.37,2013-07-09 20:38:00,
2013-07-09 10:43:00,79.9,66.6,30.03,NE,50,13.8,13.8,64,0.00,CLR,,0.00,1034.0,WeatherDisplay:10.37,2013-07-09 20:43:00,
2013-07-09 10:48:00,80.1,67.3,30.03,ENE,74,17.3,17.3,65,0.00,CLR,,0.00,998.0,WeatherDisplay:10.37,2013-07-09 20:48:00,
2013-07-09 10:53:00,80.2,66.9,30.03,NE,47,12.7,12.7,64,0.00,CLR,,0.00,1044.0,WeatherDisplay:10.37,2013-07-09 20:53:00,
2013-07-09 10:58:00,80.5,67.2,30.03,ESE,106,11.5,11.5,64,0.00,CLR,,0.00,998.0,WeatherDisplay:10.37,2013-07-09 20:58:00,
2013-07-09 11:03:00,80.2,66.9,30.03,ENE,70,16.0,16.0,64,0.00,OVC,,0.00,265.0,WeatherDisplay:10.37,2013-07-09 21:03:00,
2013-07-09 11:08:00,80.1,66.8,30.03,NE,55,15.0,15.0,64,0.00,BKN,,0.00,371.0,WeatherDisplay:10.37,2013-07-09 21:08:00,
2013-07-09 11:13:00,80.2,66.9,30.03,NNE,32,17.3,17.3,64,0.00,CLR,,0.00,1090.0,WeatherDisplay:10.37,2013-07-09 21:13:00,
2013-07-09 11:18:00,80.3,67.0,30.03,East,84,12.7,12.7,64,0.00,CLR,,0.00,1078.0,WeatherDisplay:10.37,2013-07-09 21:18:00,
2013-07-09 11:23:00,80.6,67.3,30.03,NNE,30,10.4,10.4,64,0.00,CLR,,0.00,1153.0,WeatherDisplay:10.37,2013-07-09 21:23:00,
2013-07-09 11:28:00,80.7,67.4,30.03,NE,48,9.2,9.2,64,0.00,CLR,,0.00,1095.0,WeatherDisplay:10.37,2013-07-09 21:28:00,
2013-07-09 11:33:00,80.7,67.4,30.03,NE,47,9.2,9.2,64,0.00,CLR,,0.00,1097.0,WeatherDisplay:10.37,2013-07-09 21:33:00,
2013-07-09 11:38:00,81.1,67.3,30.03,ENE,74,15.0,15.0,63,0.00,CLR,,0.00,1069.0,WeatherDisplay:10.37,2013-07-09 21:38:00,
2013-07-09 11:43:00,81.2,66.9,30.03,ENE,64,11.5,11.5,62,0.00,OVC,,0.00,279.0,WeatherDisplay:10.37,2013-07-09 21:43:00,
2013-07-09 11:48:00,81.0,67.2,30.03,SE,130,12.0,12.0,63,0.00,OVC,,0.00,287.0,WeatherDisplay:10.37,2013-07-09 21:48:00,
2013-07-09 11:53:00,80.9,67.1,30.03,East,90,15.0,15.0,63,0.00,FEW,,0.00,733.0,WeatherDisplay:10.37,2013-07-09 21:53:00,
2013-07-09 11:58:00,80.7,66.9,30.03,East,86,12.7,12.7,63,0.00,CLR,,0.00,1229.0,WeatherDisplay:10.37,2013-07-09 21:58:00,
2013-07-09 12:03:00,80.7,66.5,30.03,North,9,17.3,17.3,62,0.00,CLR,,0.00,1065.0,WeatherDisplay:10.37,2013-07-09 22:03:00,
2013-07-09 12:08:00,81.0,66.8,30.03,East,79,13.8,13.8,62,0.00,CLR,,0.00,1164.0,WeatherDisplay:10.37,2013-07-09 22:08:00,
2013-07-09 12:13:00,81.0,66.3,30.03,ENE,66,11.5,11.5,61,0.00,CLR,,0.00,1164.0,WeatherDisplay:10.37,2013-07-09 22:13:00,
2013-07-09 12:18:00,81.0,66.3,30.03,ENE,62,11.5,11.5,61,0.00,CLR,,0.00,1167.0,WeatherDisplay:10.37,2013-07-09 22:18:00,
2013-07-09 12:23:00,81.1,66.4,30.03,ENE,60,11.5,11.5,61,0.00,CLR,,0.00,1167.0,WeatherDisplay:10.37,2013-07-09 22:23:00,
2013-07-09 12:28:00,81.5,66.8,30.03,NNE,29,10.4,10.4,61,0.00,CLR,,0.00,1028.0,WeatherDisplay:10.37,2013-07-09 22:28:00,
2013-07-09 12:33:00,82.0,66.7,30.03,NE,42,11.5,11.5,60,0.00,CLR,,0.00,1078.0,WeatherDisplay:10.37,2013-07-09 22:33:00,
2013-07-09 12:38:00,82.2,66.9,30.02,ENE,76,11.5,11.5,60,0.00,CLR,,0.00,1102.0,WeatherDisplay:10.37,2013-07-09 22:38:00,
2013-07-09 12:43:00,82.2,66.9,30.02,ENE,72,12.0,12.0,60,0.00,CLR,,0.00,1129.0,WeatherDisplay:10.37,2013-07-09 22:43:00,
2013-07-09 12:48:00,82.2,66.9,30.03,ESE,122,21.0,21.0,60,0.00,CLR,,0.00,1162.0,WeatherDisplay:10.37,2013-07-09 22:48:00,
2013-07-09 12:53:00,82.0,66.3,30.02,East,94,11.5,11.5,59,0.00,CLR,,0.00,1153.0,WeatherDisplay:10.37,2013-07-09 22:53:00,
2013-07-09 12:58:00,82.0,66.3,30.03,ESE,119,11.5,11.5,59,0.00,CLR,,0.00,1141.0,WeatherDisplay:10.37,2013-07-09 22:58:00,
2013-07-09 13:03:00,82.1,66.4,30.02,NE,49,12.7,12.7,59,0.00,CLR,,0.00,1183.0,WeatherDisplay:10.37,2013-07-09 23:03:00,
2013-07-09 13:08:00,82.1,66.4,30.02,NNE,24,15.0,15.0,59,0.00,CLR,,0.00,1104.0,WeatherDisplay:10.37,2013-07-09 23:08:00,
2013-07-09 13:13:00,81.8,66.6,30.02,ENE,74,15.0,15.0,60,0.00,CLR,,0.00,1204.0,WeatherDisplay:10.37,2013-07-09 23:13:00,
2013-07-09 13:18:00,81.8,66.6,30.02,NNW,343,13.8,13.8,60,0.00,CLR,,0.00,1053.0,WeatherDisplay:10.37,2013-07-09 23:18:00,
2013-07-09 13:23:00,82.2,66.9,30.02,NE,54,13.0,13.0,60,0.00,CLR,,0.00,1007.0,WeatherDisplay:10.37,2013-07-09 23:23:00,
2013-07-09 13:28:00,82.1,66.8,30.02,ENE,63,12.7,12.7,60,0.00,CLR,,0.00,1042.0,WeatherDisplay:10.37,2013-07-09 23:28:00,
2013-07-09 13:33:00,82.3,66.5,30.02,ENE,75,11.5,11.5,59,0.00,CLR,,0.00,1078.0,WeatherDisplay:10.37,2013-07-09 23:33:00,
2013-07-09 13:38:00,82.3,66.5,30.02,ESE,103,11.5,11.5,59,0.00,OVC,,0.00,1120.0,WeatherDisplay:10.37,2013-07-09 23:38:00,
2013-07-09 13:43:00,82.2,66.9,30.02,NNE,30,11.5,11.5,60,0.00,CLR,,0.00,995.0,WeatherDisplay:10.37,2013-07-09 23:43:00,
2013-07-09 13:48:00,82.6,67.3,30.01,NNE,28,16.1,16.1,60,0.00,CLR,,0.00,1104.0,WeatherDisplay:10.37,2013-07-09 23:48:00,
2013-07-09 13:53:00,82.7,66.4,30.01,East,99,14.0,14.0,58,0.00,CLR,,0.00,995.0,WeatherDisplay:10.37,2013-07-09 23:53:00,
2013-07-09 13:58:00,82.3,67.0,30.02,ENE,60,16.1,16.1,60,0.00,CLR,,0.00,977.0,WeatherDisplay:10.37,2013-07-09 23:58:00,
2013-07-09 14:03:00,82.3,67.5,30.01,NE,54,8.1,8.1,61,0.00,CLR,,0.00,988.0,WeatherDisplay:10.37,2013-07-10 00:03:00,
2013-07-09 14:08:00,82.6,67.3,30.01,NE,42,15.0,15.0,60,0.00,CLR,,0.00,1137.0,WeatherDisplay:10.37,2013-07-10 00:08:00,
2013-07-09 14:13:00,82.4,67.1,30.01,NNE,16,11.5,11.5,60,0.00,CLR,,0.00,995.0,WeatherDisplay:10.37,2013-07-10 00:13:00,
2013-07-09 14:18:00,82.5,67.2,30.01,NW,307,13.0,13.0,60,0.00,CLR,,0.00,1032.0,WeatherDisplay:10.37,2013-07-10 00:18:00,
2013-07-09 14:23:00,82.5,67.7,30.00,NNE,22,11.5,11.5,61,0.00,CLR,,0.00,1086.0,WeatherDisplay:10.37,2013-07-10 00:23:00,
2013-07-09 14:28:00,82.8,68.0,30.01,NE,49,10.4,10.4,61,0.00,BKN,,0.00,376.0,WeatherDisplay:10.37,2013-07-10 00:28:00,
2013-07-09 14:33:00,82.6,67.8,30.00,ESE,113,12.7,12.7,61,0.00,SCT,,0.00,483.0,WeatherDisplay:10.37,2013-07-10 00:33:00,
2013-07-09 14:38:00,82.1,67.8,30.01,ENE,76,11.5,11.5,62,0.00,BKN,,0.00,304.0,WeatherDisplay:10.37,2013-07-10 00:38:00,
2013-07-09 14:43:00,81.7,67.9,30.00,NNE,29,11.5,11.5,63,0.00,BKN,,0.00,299.0,WeatherDisplay:10.37,2013-07-10 00:43:00,
2013-07-09 14:48:00,81.4,67.6,30.01,East,80,19.6,19.6,63,0.00,BKN,,0.00,299.0,WeatherDisplay:10.37,2013-07-10 00:48:00,
2013-07-09 14:53:00,81.4,67.6,30.01,NE,51,11.0,11.0,63,0.00,BKN,,0.00,951.0,WeatherDisplay:10.37,2013-07-10 00:53:00,
2013-07-09 14:58:00,81.2,67.9,30.00,NNW,341,8.1,8.1,64,0.00,CLR,,0.00,1007.0,WeatherDisplay:10.37,2013-07-10 00:58:00,
2013-07-09 15:03:00,81.3,67.5,30.01,ENE,71,11.5,11.5,63,0.00,CLR,,0.00,965.0,WeatherDisplay:10.37,2013-07-10 01:03:00,
2013-07-09 15:08:00,81.3,68.0,30.01,ENE,57,16.1,16.1,64,0.00,CLR,,0.00,1062.0,WeatherDisplay:10.37,2013-07-10 01:08:00,
2013-07-09 15:13:00,81.3,68.0,30.00,ESE,102,8.0,8.0,64,0.00,CLR,,0.00,905.0,WeatherDisplay:10.37,2013-07-10 01:13:00,
2013-07-09 15:18:00,81.4,68.1,30.00,ENE,59,12.7,12.7,64,0.00,CLR,,0.00,260.0,WeatherDisplay:10.37,2013-07-10 01:18:00,
2013-07-09 15:23:00,81.1,67.8,30.00,NE,49,13.8,13.8,64,0.00,BKN,,0.00,881.0,WeatherDisplay:10.37,2013-07-10 01:23:00,
2013-07-09 15:28:00,81.0,68.1,30.01,NNE,21,12.0,12.0,65,0.00,BKN,,0.00,318.0,WeatherDisplay:10.37,2013-07-10 01:28:00,
2013-07-09 15:33:00,80.9,68.5,30.00,NE,35,13.8,13.8,66,0.00,CLR,,0.00,954.0,WeatherDisplay:10.37,2013-07-10 01:33:00,
2013-07-09 15:38:00,81.2,68.3,30.01,ENE,66,12.0,12.0,65,0.00,CLR,,0.00,911.0,WeatherDisplay:10.37,2013-07-10 01:38:00,
2013-07-09 15:43:00,81.1,68.2,30.01,East,79,11.5,11.5,65,0.00,CLR,,0.00,693.0,WeatherDisplay:10.37,2013-07-10 01:43:00,
2013-07-09 15:48:00,80.6,68.2,30.00,ENE,69,9.2,9.2,66,0.00,BKN,,0.00,221.0,WeatherDisplay:10.37,2013-07-10 01:48:00,
2013-07-09 15:53:00,80.2,67.8,30.00,ENE,65,18.4,18.4,66,0.00,BKN,,0.00,253.0,WeatherDisplay:10.37,2013-07-10 01:53:00,
2013-07-09 15:58:00,80.0,67.6,30.00,East,85,9.2,9.2,66,0.00,SCT,,0.00,359.0,WeatherDisplay:10.37,2013-07-10 01:58:00,
2013-07-09 16:03:00,80.1,67.7,30.00,NE,34,11.5,11.5,66,0.00,CLR,,0.00,802.0,WeatherDisplay:10.37,2013-07-10 02:03:00,
2013-07-09 16:08:00,80.0,67.6,30.00,ENE,78,11.5,11.5,66,0.00,BKN,,0.00,214.0,WeatherDisplay:10.37,2013-07-10 02:08:00,
2013-07-09 16:13:00,79.7,66.9,30.00,ENE,67,15.0,15.0,65,0.00,BKN,,0.00,214.0,WeatherDisplay:10.37,2013-07-10 02:13:00,
2013-07-09 16:18:00,79.5,67.1,30.00,ESE,112,13.8,13.8,66,0.00,CLR,,0.00,195.0,WeatherDisplay:10.37,2013-07-10 02:18:00,
2013-07-09 16:23:00,79.3,67.4,30.00,NE,49,11.5,11.5,67,0.00,OVC,,0.00,116.0,WeatherDisplay:10.37,2013-07-10 02:23:00,
2013-07-09 16:28:00,79.3,67.4,30.00,NE,51,11.5,11.5,67,0.00,CLR,,0.00,635.0,WeatherDisplay:10.37,2013-07-10 02:28:00,
2013-07-09 16:33:00,79.4,66.6,30.00,ENE,59,11.5,11.5,65,0.00,CLR,,0.00,584.0,WeatherDisplay:10.37,2013-07-10 02:33:00,
2013-07-09 16:38:00,79.5,67.1,30.00,NE,40,11.5,11.5,66,0.00,CLR,,0.00,633.0,WeatherDisplay:10.37,2013-07-10 02:38:00,
2013-07-09 16:43:00,79.6,67.2,30.00,ENE,67,12.7,12.7,66,0.00,CLR,,0.00,563.0,WeatherDisplay:10.37,2013-07-10 02:43:00,
2013-07-09 16:48:00,79.5,67.6,30.00,ENE,58,13.8,13.8,67,0.00,SCT,,0.00,264.0,WeatherDisplay:10.37,2013-07-10 02:48:00,
2013-07-09 16:53:00,79.4,67.5,30.00,East,81,12.7,12.7,67,0.00,CLR,,0.00,522.0,WeatherDisplay:10.37,2013-07-10 02:53:00,
2013-07-09 16:58:00,79.3,67.4,30.00,NE,38,11.5,11.5,67,0.00,CLR,,0.00,540.0,WeatherDisplay:10.37,2013-07-10 02:58:00,
2013-07-09 17:03:00,79.3,67.4,30.00,East,84,12.7,12.7,67,0.00,CLR,,0.00,541.0,WeatherDisplay:10.37,2013-07-10 03:03:00,
2013-07-09 17:08:00,79.3,67.4,30.01,ENE,67,17.3,17.3,67,0.00,CLR,,0.00,524.0,WeatherDisplay:10.37,2013-07-10 03:08:00,
2013-07-09 17:13:00,79.1,67.2,30.01,SE,125,11.5,11.5,67,0.00,CLR,,0.00,519.0,WeatherDisplay:10.37,2013-07-10 03:13:00,
2013-07-09 17:18:00,79.1,67.6,30.00,ENE,65,13.8,13.8,68,0.00,CLR,,0.00,446.0,WeatherDisplay:10.37,2013-07-10 03:18:00,
2013-07-09 17:23:00,79.0,67.5,30.00,ENE,78,11.5,11.5,68,0.00,CLR,,0.00,401.0,WeatherDisplay:10.37,2013-07-10 03:23:00,
2013-07-09 17:28:00,79.0,67.5,30.01,East,80,11.5,11.5,68,0.00,SCT,,0.00,181.0,WeatherDisplay:10.37,2013-07-10 03:28:00,
2013-07-09 17:33:00,78.6,68.0,30.01,ENE,70,8.1,8.1,70,0.00,SCT,,0.00,151.0,WeatherDisplay:10.37,2013-07-10 03:33:00,
2013-07-09 17:38:00,78.3,67.7,30.01,North,355,12.7,12.7,70,0.00,CLR,,0.00,383.0,WeatherDisplay:10.37,2013-07-10 03:38:00,
2013-07-09 17:43:00,78.1,67.9,30.01,ESE,103,11.5,11.5,71,0.00,CLR,,0.00,362.0,WeatherDisplay:10.37,2013-07-10 03:43:00,
2013-07-09 17:48:00,78.0,67.8,30.01,NE,56,10.4,10.4,71,0.00,CLR,,0.00,327.0,WeatherDisplay:10.37,2013-07-10 03:48:00,
2013-07-09 17:53:00,77.9,68.1,30.01,ENE,64,10.4,10.4,72,0.00,CLR,,0.00,276.0,WeatherDisplay:10.37,2013-07-10 03:53:00,
2013-07-09 17:58:00,77.7,68.4,30.01,North,5,16.1,16.1,73,0.00,CLR,,0.00,258.0,WeatherDisplay:10.37,2013-07-10 03:58:00,
2013-07-09 18:01:00,77.6,68.3,30.01,NNE,22,12.7,12.7,73,0.00,CLR,,0.00,229.0,WeatherDisplay:10.37,2013-07-10 04:01:00,
2013-07-09 18:06:00,77.3,68.0,30.01,NE,49,11.5,11.5,73,0.00,CLR,,0.00,174.0,WeatherDisplay:10.37,2013-07-10 04:06:00,
2013-07-09 18:11:00,77.0,67.7,30.01,NE,44,9.2,9.2,73,0.00,CLR,,0.00,130.0,WeatherDisplay:10.37,2013-07-10 04:11:00,
2013-07-09 18:16:00,76.8,67.9,30.01,East,86,8.1,8.1,74,0.00,CLR,,0.00,132.0,WeatherDisplay:10.37,2013-07-10 04:16:00,
2013-07-09 18:21:00,76.6,67.7,30.02,NE,48,10.4,10.4,74,0.00,CLR,,0.00,125.0,WeatherDisplay:10.37,2013-07-10 04:21:00,
2013-07-09 18:26:00,76.4,67.9,30.02,North,355,8.1,8.1,75,0.00,CLR,,0.00,88.0,WeatherDisplay:10.37,2013-07-10 04:26:00,
2013-07-09 18:31:00,76.3,68.2,30.02,NE,38,8.1,8.1,76,0.00,CLR,,0.00,93.0,WeatherDisplay:10.37,2013-07-10 04:31:00,
2013-07-09 18:36:00,76.1,68.0,30.02,NNE,32,9.2,9.2,76,0.00,BKN,,0.00,28.0,WeatherDisplay:10.37,2013-07-10 04:36:00,
2013-07-09 18:41:00,75.9,67.8,30.02,NE,46,11.5,11.5,76,0.00,CLR,,0.00,25.0,WeatherDisplay:10.37,2013-07-10 04:41:00,
2013-07-09 18:46:00,75.7,67.6,30.02,ENE,57,12.0,12.0,76,0.00,BKN,,0.00,30.0,WeatherDisplay:10.37,2013-07-10 04:46:00,
2013-07-09 18:51:00,75.5,67.8,30.03,North,5,13.8,13.8,77,0.00,SCT,,0.00,32.0,WeatherDisplay:10.37,2013-07-10 04:51:00,
2013-07-09 18:56:00,75.3,68.0,30.03,NNE,31,11.5,11.5,78,0.00,SCT,,0.00,26.0,WeatherDisplay:10.37,2013-07-10 04:56:00,
2013-07-09 19:01:00,75.2,67.9,30.03,ENE,64,8.1,8.1,78,0.00,SCT,,0.00,16.0,WeatherDisplay:10.37,2013-07-10 05:01:00,
2013-07-09 19:06:00,75.1,68.1,30.03,NE,44,10.4,10.4,79,0.00,BKN,,0.00,12.0,WeatherDisplay:10.37,2013-07-10 05:06:00,
2013-07-09 19:11:00,74.8,68.2,30.03,ENE,76,9.2,9.2,80,0.00,SCT,,0.00,9.0,WeatherDisplay:10.37,2013-07-10 05:11:00,
2013-07-09 19:16:00,74.6,68.4,30.03,ENE,57,9.2,9.2,81,0.00,CLR,,0.00,5.0,WeatherDisplay:10.37,2013-07-10 05:16:00,
2013-07-09 19:21:00,74.4,68.5,30.04,ENE,69,11.5,11.5,82,0.00,CLR,,0.00,0.0,WeatherDisplay:10.37,2013-07-10 05:21:00,
2013-07-09 19:26:00,74.2,68.3,30.04,NNE,32,10.4,10.4,82,0.00,CLR,,0.00,0.0,WeatherDisplay:10.37,2013-07-10 05:26:00,
2013-07-09 19:31:00,74.0,68.5,30.04,East,90,3.5,4.0,83,0.00,CLR,,0.00,0.0,WeatherDisplay:10.37,2013-07-10 05:31:00,
2013-07-09 19:36:00,73.8,68.3,30.04,NE,50,9.2,9.2,83,0.00,CLR,,0.00,0.0,WeatherDisplay:10.37,2013-07-10 05:36:00,
2013-07-09 19:41:00,73.5,67.7,30.04,NE,48,9.2,9.2,82,0.00,CLR,,0.00,0.0,WeatherDisplay:10.37,2013-07-10 05:41:00,
2013-07-09 19:46:00,73.4,67.6,30.04,NE,49,11.5,11.5,82,0.00,CLR,,0.00,0.0,WeatherDisplay:10.37,2013-07-10 05:46:00,
2013-07-09 19:51:00,73.1,67.6,30.05,NE,41,11.5,11.5,83,0.00,CLR,,0.00,0.0,WeatherDisplay:10.37,2013-07-10 05:51:00,
2013-07-09 19:56:00,73.0,67.5,30.04,NNE,31,9.2,9.2,83,0.00,CLR,,0.00,0.0,WeatherDisplay:10.37,2013-07-10 05:56:00,
2013-07-09 20:01:00,72.9,67.4,30.05,ENE,76,9.2,9.2,83,0.00,CLR,,0.00,0.0,WeatherDisplay:10.37,2013-07-10 06:01:00,
2013-07-09 20:06:00,72.9,67.8,30.05,NE,44,9.2,9.2,84,0.00,CLR,,0.00,0.0,WeatherDisplay:10.37,2013-07-10 06:06:00,
2013-07-09 20:11:00,72.8,67.7,30.05,East,94,10.4,10.4,84,0.00,CLR,,0.00,0.0,WeatherDisplay:10.37,2013-07-10 06:11:00,
2013-07-09 20:16:00,72.7,67.6,30.05,ENE,66,8.1,8.1,84,0.00,CLR,,0.00,0.0,WeatherDisplay:10.37,2013-07-10 06:16:00,
2013-07-09 20:21:00,72.7,67.9,30.05,NE,55,10.4,10.4,85,0.00,CLR,,0.00,0.0,WeatherDisplay:10.37,2013-07-10 06:21:00,
2013-07-09 20:26:00,72.7,67.9,30.05,NNW,346,9.2,9.2,85,0.00,CLR,,0.00,0.0,WeatherDisplay:10.37,2013-07-10 06:26:00,
2013-07-09 20:31:00,72.8,68.0,30.05,ENE,59,10.4,10.4,85,0.00,CLR,,0.00,0.0,WeatherDisplay:10.37,2013-07-10 06:31:00,
2013-07-09 20:36:00,72.8,68.0,30.05,North,349,8.1,8.1,85,0.00,CLR,,0.00,0.0,WeatherDisplay:10.37,2013-07-10 06:36:00,
2013-07-09 20:41:00,72.8,68.0,30.05,North,360,11.5,11.5,85,0.00,CLR,,0.00,0.0,WeatherDisplay:10.37,2013-07-10 06:41:00,
2013-07-09 20:46:00,72.9,68.1,30.06,ENE,69,6.9,6.9,85,0.00,CLR,,0.00,0.0,WeatherDisplay:10.37,2013-07-10 06:46:00,
2013-07-09 20:51:00,73.0,68.2,30.06,ENE,74,11.5,11.5,85,0.00,CLR,,0.00,0.0,WeatherDisplay:10.37,2013-07-10 06:51:00,
2013-07-09 20:56:00,73.1,68.3,30.05,NE,55,9.2,9.2,85,0.00,CLR,,0.00,0.0,WeatherDisplay:10.37,2013-07-10 06:56:00,
2013-07-09 21:01:00,73.2,68.1,30.06,ENE,61,7.0,7.0,84,0.00,CLR,,0.00,0.0,WeatherDisplay:10.37,2013-07-10 07:01:00,
2013-07-09 21:06:00,73.2,68.1,30.06,North,355,12.7,12.7,84,0.00,CLR,,0.00,0.0,WeatherDisplay:10.37,2013-07-10 07:06:00,
2013-07-09 21:11:00,73.2,67.7,30.06,ENE,76,8.1,8.1,83,0.00,CLR,,0.00,0.0,WeatherDisplay:10.37,2013-07-10 07:11:00,
2013-07-09 21:16:00,73.2,67.7,30.06,NE,44,8.1,8.1,83,0.00,CLR,,0.00,0.0,WeatherDisplay:10.37,2013-07-10 07:16:00,
2013-07-09 21:21:00,73.2,67.4,30.07,ENE,63,12.7,12.7,82,0.00,CLR,,0.00,0.0,WeatherDisplay:10.37,2013-07-10 07:21:00,
2013-07-09 21:26:00,73.3,67.5,30.06,NNE,28,8.1,8.1,82,0.00,CLR,,0.00,0.0,WeatherDisplay:10.37,2013-07-10 07:26:00,
2013-07-09 21:31:00,73.4,67.2,30.07,East,91,12.7,12.7,81,0.00,CLR,,0.00,0.0,WeatherDisplay:10.37,2013-07-10 07:31:00,
2013-07-09 21:36:00,73.4,67.2,30.07,NE,54,10.4,10.4,81,0.00,CLR,,0.00,0.0,WeatherDisplay:10.37,2013-07-10 07:36:00,
2013-07-09 21:41:00,73.3,67.1,30.08,North,355,15.0,15.0,81,0.00,CLR,,0.00,0.0,WeatherDisplay:10.37,2013-07-10 07:41:00,
2013-07-09 21:46:00,73.2,67.0,30.08,NE,40,9.2,9.2,81,0.00,CLR,,0.00,0.0,WeatherDisplay:10.37,2013-07-10 07:46:00,
2013-07-09 21:51:00,73.3,67.1,30.07,ENE,74,12.7,12.7,81,0.00,CLR,,0.00,0.0,WeatherDisplay:10.37,2013-07-10 07:51:00,
2013-07-09 21:56:00,73.3,67.1,30.08,ENE,63,10.4,10.4,81,0.00,CLR,,0.00,0.0,WeatherDisplay:10.37,2013-07-10 07:56:00,
2013-07-09 22:01:00,73.2,67.0,30.08,NNE,33,6.9,6.9,81,0.00,CLR,,0.00,0.0,WeatherDisplay:10.37,2013-07-10 08:01:00,
2013-07-09 22:06:00,73.1,67.3,30.08,NE,49,9.2,9.2,82,0.00,CLR,,0.00,0.0,WeatherDisplay:10.37,2013-07-10 08:06:00,
2013-07-09 22:11:00,73.1,67.3,30.08,NNE,26,11.5,11.5,82,0.00,CLR,,0.00,0.0,WeatherDisplay:10.37,2013-07-10 08:11:00,
2013-07-09 22:16:00,73.1,67.3,30.08,ENE,69,8.1,8.1,82,0.00,CLR,,0.00,0.0,WeatherDisplay:10.37,2013-07-10 08:16:00,
2013-07-09 22:21:00,73.1,67.3,30.08,NE,42,10.4,10.4,82,0.00,CLR,,0.00,0.0,WeatherDisplay:10.37,2013-07-10 08:21:00,
2013-07-09 22:26:00,73.1,67.3,30.08,ENE,59,10.4,10.4,82,0.00,CLR,,0.00,0.0,WeatherDisplay:10.37,2013-07-10 08:26:00,
2013-07-09 22:31:00,73.3,67.5,30.08,ENE,57,9.2,9.2,82,0.00,CLR,,0.00,0.0,WeatherDisplay:10.37,2013-07-10 08:31:00,
2013-07-09 22:36:00,73.3,67.5,30.08,NE,51,11.5,11.5,82,0.00,CLR,,0.00,0.0,WeatherDisplay:10.37,2013-07-10 08:36:00,
2013-07-09 22:41:00,73.2,67.4,30.08,ENE,59,7.0,7.0,82,0.00,CLR,,0.00,0.0,WeatherDisplay:10.37,2013-07-10 08:41:00,
2013-07-09 22:46:00,73.2,67.7,30.08,NNW,346,4.6,4.6,83,0.00,CLR,,0.00,0.0,WeatherDisplay:10.37,2013-07-10 08:46:00,
2013-07-09 22:51:00,73.2,67.7,30.08,East,101,9.2,9.2,83,0.00,CLR,,0.00,0.0,WeatherDisplay:10.37,2013-07-10 08:51:00,
2013-07-09 22:56:00,73.3,67.5,30.08,NE,42,11.5,11.5,82,0.00,CLR,,0.00,0.0,WeatherDisplay:10.37,2013-07-10 08:56:00,
2013-07-09 23:01:00,73.3,67.5,30.08,ENE,64,9.2,9.2,82,0.00,CLR,,0.00,0.0,WeatherDisplay:10.37,2013-07-10 09:01:00,
2013-07-09 23:06:00,73.4,67.6,30.08,NNW,342,8.0,8.0,82,0.00,CLR,,0.00,0.0,WeatherDisplay:10.37,2013-07-10 09:06:00,
2013-07-09 23:11:00,73.4,67.6,30.08,North,360,8.1,8.1,82,0.00,CLR,,0.00,0.0,WeatherDisplay:10.37,2013-07-10 09:11:00,
2013-07-09 23:16:00,73.4,67.6,30.08,ENE,64,9.2,9.2,82,0.00,CLR,,0.00,0.0,WeatherDisplay:10.37,2013-07-10 09:16:00,
2013-07-09 23:21:00,73.5,67.7,30.08,NE,37,10.4,10.4,82,0.00,CLR,,0.00,0.0,WeatherDisplay:10.37,2013-07-10 09:21:00,
2013-07-09 23:26:00,73.6,68.1,30.08,NNE,16,11.5,11.5,83,0.00,CLR,,0.00,0.0,WeatherDisplay:10.37,2013-07-10 09:26:00,
2013-07-09 23:31:00,73.6,68.1,30.08,ENE,62,9.2,9.2,83,0.00,CLR,,0.00,0.0,WeatherDisplay:10.37,2013-07-10 09:31:00,
2013-07-09 23:36:00,73.5,68.0,30.08,East,86,7.0,7.0,83,0.00,CLR,,0.00,0.0,WeatherDisplay:10.37,2013-07-10 09:36:00,
2013-07-09 23:41:00,73.4,68.3,30.08,NE,37,6.9,6.9,84,0.00,CLR,,0.00,0.0,WeatherDisplay:10.37,2013-07-10 09:41:00,
2013-07-09 23:46:00,73.3,68.2,30.08,East,92,9.2,9.2,84,0.00,CLR,,0.00,0.0,WeatherDisplay:10.37,2013-07-10 09:46:00,
2013-07-09 23:51:00,73.2,68.4,30.08,ESE,121,16.0,16.0,85,0.00,CLR,,0.00,0.0,WeatherDisplay:10.37,2013-07-10 09:51:00,
2013-07-09 23:56:00,73.1,68.3,30.08,NE,50,10.4,10.4,85,0.00,CLR,,0.00,0.0,WeatherDisplay:10.37,2013-07-10 09:56:00,